FW8640 Weather Reports


time (UTC)temp
F
wind
direction
speed
knots
gust
knots
rain 1hr
in
rain 24hr
in
rain mn
in
humidity
%
barometer
mb
20260510143017 73 0 0.9 1.7 0.00 0.00 0.00 67 1014.6
20260510142018 72 0 0.9 1.7 0.00 0.00 0.00 69 1014.4
20260510141017 72 0 1.7 7.0 0.00 0.00 0.00 71 1014.5
20260510140019 72 0 1.7 4.3 0.00 0.00 0.00 71 1014.6
20260510135020 73 0 1.7 7.8 0.00 0.00 0.00 70 1014.7
20260510134017 74 0 3.5 8.7 0.00 0.00 0.00 68 1014.7
20260510133019 76 0 0.9 3.5 0.00 0.00 0.00 60 1014.6
20260510132019 76 0.0 1.7 0.00 0.00 0.00 60 1014.7
20260510131019 75 0 0.9 2.6 0.00 0.00 0.00 62 1014.9
20260510130042 75 0 0.9 2.6 0.00 0.00 0.00 61 1015.0
20260510125019 75 0 0.9 1.7 0.00 0.00 0.00 61 1015.1
20260510124019 75 0 0.9 2.6 0.00 0.00 0.00 61 1015.1
20260510123019 75 270 0.9 2.6 0.00 0.00 0.00 62 1015.3
20260510122019 75 135 0.9 5.2 0.00 0.00 0.00 64 1015.5
20260510121020 75 225 1.7 4.3 0.00 0.00 0.00 64 1015.6
20260510120019 76 225 1.7 6.1 0.00 0.00 0.00 62 1015.9
20260510115105 76 248 0.9 2.6 0.00 0.00 0.00 62 1016.1
20260510114020 74 248 1.7 5.2 0.00 0.00 0.00 64 1016.0
20260510113042 75 248 1.7 7.0 0.00 0.00 0.00 64 1016.0
20260510112040 76 248 0.9 4.3 0.00 0.00 0.00 62 1016.0
20260510111020 75 180 0.9 2.6 0.00 0.00 0.00 65 1016.1
20260510110019 74 225 1.7 3.5 0.00 0.00 0.00 66 1016.2
20260510105019 75 248 1.7 5.2 0.00 0.00 0.00 63 1016.2
20260510104021 78 225 2.6 6.1 0.00 0.00 0.00 54 1016.2
20260510103040 77 248 2.6 7.0 0.00 0.00 0.00 55 1016.4
20260510102019 77 248 3.5 7.0 0.00 0.00 0.00 52 1016.5
20260510101044 78 0.0 1.7 0.00 0.00 0.00 50 1016.4
20260510100019 77 23 1.7 3.5 0.00 0.00 0.00 49 1016.4
20260510095043 77 293 2.6 6.1 0.00 0.00 0.00 50 1016.4
20260510094018 78 338 5.2 11.3 0.00 0.00 0.00 49 1016.5
20260510093018 77 338 2.6 6.1 0.00 0.00 0.00 49 1016.5
20260510092020 77 293 2.6 7.0 0.00 0.00 0.00 50 1016.8
20260510091018 77 338 5.2 9.6 0.00 0.00 0.00 49 1017.0
20260510090020 77 0 4.3 11.3 0.00 0.00 0.00 50 1016.9
20260510085018 77 338 5.2 8.7 0.00 0.00 0.00 50 1017.0
20260510084018 77 0 3.5 9.6 0.00 0.00 0.00 51 1016.9
20260510083018 76 315 2.6 6.1 0.00 0.00 0.00 53 1016.9
20260510082018 76 315 5.2 9.6 0.00 0.00 0.00 53 1016.9
20260510081018 75 293 1.7 3.5 0.00 0.00 0.00 58 1016.8
20260510080020 74 270 1.7 5.2 0.00 0.00 0.00 59 1016.9
20260510075020 72 0 1.7 4.3 0.00 0.00 0.00 62 1017.0
20260510074018 72 0 1.7 5.2 0.00 0.00 0.00 62 1017.1
20260510073019 72 0 1.7 4.3 0.00 0.00 0.00 64 1017.0
20260510072019 71 0 1.7 3.5 0.00 0.00 0.00 67 1017.1
20260510071020 70 0 2.6 7.0 0.00 0.00 0.00 68 1017.0
20260510070020 69 0 2.6 8.7 0.00 0.00 0.00 69 1017.0
20260510065019 69 0 2.6 4.3 0.00 0.00 0.00 69 1017.0
20260510064103 68 0 1.7 4.3 0.00 0.00 0.00 70 1016.9
20260510063019 68 0 2.6 5.2 0.00 0.00 0.00 70 1016.8
20260510062020 67 0 3.5 7.8 0.00 0.00 0.00 70 1017.0
20260510061018 67 0 2.6 7.0 0.00 0.00 0.00 70 1016.9
20260510060019 67 0 3.5 7.8 0.00 0.00 0.00 70 1017.0
20260510055018 68 0 2.6 7.0 0.00 0.00 0.00 70 1017.1
20260510054018 67 0 1.7 4.3 0.00 0.00 0.00 72 1017.0
20260510053040 66 0 0.9 4.3 0.00 0.00 0.00 74 1016.9
20260510052020 65 0 0.9 3.5 0.00 0.00 0.00 75 1016.7
20260510051020 64 0 0.9 3.5 0.00 0.00 0.00 76 1016.7
20260510050019 64 0.0 0.9 0.00 0.00 0.00 76 1016.6
20260510045020 64 0.0 0.9 0.00 0.00 0.00 75 1016.6
20260510044020 64 0.0 0.9 0.00 0.00 0.00 74 1016.7
20260510043018 64 0.0 1.7 0.00 0.00 0.00 74 1016.7
20260510042020 64 0.0 1.7 0.00 0.00 0.00 73 1016.8
20260510041020 64 0 2.6 3.5 0.00 0.00 0.00 73 1016.7
20260510040020 64 0 2.6 4.3 0.00 0.00 0.00 73 1016.5
20260510035018 64 0 3.5 5.2 0.00 0.00 0.00 73 1016.4
20260510034019 64 0 3.5 7.0 0.00 0.00 0.00 73 1016.3
20260510033020 64 0 3.5 4.3 0.00 0.00 0.00 74 1016.1
20260510032039 64 0 2.6 4.3 0.00 0.00 0.00 74 1016.0
20260510031018 64 0 2.6 4.3 0.00 0.00 0.00 74 1016.1
20260510030019 64 0 2.6 3.5 0.00 0.00 0.00 74 1016.1
20260510025018 64 0 3.5 5.2 0.00 0.00 0.00 74 1016.0
20260510024019 64 0 1.7 3.5 0.00 0.00 0.00 75 1016.0
20260510023041 64 0 0.9 2.6 0.00 0.00 0.00 75 1016.1
20260510022018 64 0 0.9 3.5 0.00 0.00 0.00 75 1016.0
20260510021041 64 0 1.7 3.5 0.00 0.00 0.00 75 1016.1
20260510020019 64 0 2.6 4.3 0.00 0.00 0.00 76 1016.1
20260510015019 64 0.0 0.9 0.00 0.00 0.00 76 1016.1
20260510014018 64 0 3.5 7.8 0.00 0.00 0.00 76 1016.0
20260510013017 63 0 3.5 7.0 0.00 0.00 0.00 77 1016.0
20260510012017 63 0 0.9 3.5 0.00 0.00 0.00 78 1016.1
20260510011019 63 0.0 0.0 0.00 0.00 0.00 79 1016.3
20260510010018 63 0 0.9 2.6 0.00 0.00 0.00 80 1016.3
20260510005017 63 0 2.6 4.3 0.00 0.00 0.00 81 1016.3
20260510004038 63 0 3.5 5.2 0.00 0.00 0.00 83 1016.5
20260510003018 62 0 3.5 5.2 0.00 0.00 0.00 84 1016.5
20260510002017 62 0 3.5 5.2 0.00 0.00 0.00 85 1016.5
20260510001017 62 0 1.7 3.5 0.00 0.00 0.00 85 1016.6
20260510000020 62 0 0.9 2.6 0.00 0.00 0.00 85 1016.5
20260509235017 63 0.0 1.7 0.00 0.00 0.00 85 1016.5
20260509234017 63 0.0 0.0 0.00 0.00 0.00 85 1016.7
20260509233018 63 0.0 0.0 0.00 0.00 0.00 85 1016.6
20260509232017 64 0.0 0.0 0.00 0.00 0.00 85 1016.7
20260509231018 64 0.0 0.0 0.00 0.00 0.00 85 1016.9
20260509230017 64 0.0 0.0 0.00 0.00 0.00 85 1016.8
20260509225017 65 0.0 0.0 0.00 0.00 0.00 85 1016.7
20260509224123 65 0.0 0.0 0.00 0.00 0.00 85 1016.8
20260509223017 65 0.0 0.0 0.00 0.00 0.00 85 1016.8
20260509222019 65 0.0 0.0 0.00 0.00 0.00 86 1016.8
20260509221020 65 0.0 0.0 0.00 0.00 0.00 86 1016.8
20260509220020 66 0.0 0.0 0.00 0.00 0.00 86 1016.8
20260509215042 66 0.0 0.0 0.00 0.00 0.00 86 1017.0
20260509214019 66 0.0 0.0 0.00 0.00 0.00 86 1017.1
20260509213022 66 0.0 0.0 0.00 0.00 0.00 86 1017.0
20260509212021 66 0.0 0.0 0.00 0.00 0.00 86 1017.0
20260509211019 66 0.0 0.0 0.00 0.00 0.00 85 1017.1
20260509210042 66 0.0 0.0 0.00 0.00 0.00 85 1017.0
20260509205020 66 0.0 0.0 0.00 0.00 0.00 84 1016.8
20260509204018 66 0.0 0.0 0.00 0.00 0.00 84 1016.7
20260509203039 66 0.0 0.0 0.00 0.00 0.00 84 1016.8
20260509202020 66 0 0.9 2.6 0.00 0.00 0.00 83 1016.6
20260509201018 66 0.0 0.0 0.00 0.00 0.00 81 1016.6
20260509200018 66 0.0 0.9 0.00 0.00 0.00 80 1016.5
20260509195018 66 0.0 0.9 0.00 0.00 0.00 80 1016.4
20260509194041 66 0.0 0.9 0.00 0.00 0.00 80 1016.4
20260509193018 67 0.0 0.0 0.00 0.00 0.00 79 1016.5
20260509192039 67 0.0 0.0 0.00 0.00 0.00 80 1016.4
20260509191019 67 0.0 0.0 0.00 0.00 0.00 79 1016.3
20260509190039 67 0.0 0.0 0.00 0.00 0.00 79 1016.4
20260509185018 68 0.0 0.0 0.00 0.00 0.00 79 1016.4
20260509184041 68 0.0 0.0 0.00 0.00 0.00 79 1016.2
20260509183019 68 0.0 0.0 0.00 0.00 0.00 78 1016.1
20260509182018 68 0.0 0.0 0.00 0.00 0.00 78 1016.1
20260509181041 68 0 0.9 2.6 0.00 0.00 0.00 78 1016.0
20260509180018 69 0 0.9 2.6 0.00 0.00 0.00 78 1015.9
20260509175018 69 0.0 0.0 0.00 0.00 0.00 78 1015.8
20260509174041 69 0.0 0.9 0.00 0.00 0.00 79 1015.4
20260509173018 69 0.0 0.0 0.00 0.00 0.00 79 1015.2
20260509172019 69 0.0 1.7 0.00 0.00 0.00 79 1015.3
20260509171017 69 0.0 1.7 0.00 0.00 0.00 79 1015.3
20260509170017 69 0.0 0.9 0.00 0.00 0.00 79 1015.3
20260509165040 69 0.0 0.9 0.00 0.00 0.00 78 1015.4
20260509164018 70 0.0 1.7 0.00 0.00 0.00 78 1015.3
20260509163018 70 0 0.9 2.6 0.00 0.00 0.00 79 1015.3
20260509162019 69 0 0.9 3.5 0.00 0.00 0.00 80 1015.2
20260509161017 69 0 0.9 1.7 0.00 0.00 0.00 80 1015.3
20260509160017 69 0.0 2.6 0.00 0.00 0.00 80 1015.4
20260509155018 69 0 0.9 3.5 0.00 0.00 0.00 80 1015.2
20260509154018 70 0 1.7 4.3 0.00 0.00 0.00 81 1015.2
20260509153019 70 0 0.9 1.7 0.00 0.00 0.00 80 1015.2
20260509152042 70 0 0.9 4.3 0.00 0.01 0.00 78 1015.0
20260509151017 70 0 2.6 5.2 0.00 0.01 0.00 78 1015.0
20260509150018 71 0 1.7 4.3 0.00 0.01 0.00 77 1014.9
20260509145019 71 0 3.5 10.4 0.00 0.01 0.00 76 1015.0
20260509144039 71 0 2.6 7.0 0.00 0.01 0.00 76 1014.8